Terug naar catalogus

STARLINK-30131

ActiefCommunicatieVLEO
NORAD 56833·PAYLOAD·🇺🇸 United States

Gelanceerd Jun 4, 2023 vanaf Cape Canaveral Space Force Station

Loading…

Volgende Passages (komende 24 uur)

TLE

VersSource: CelesTrak SupGP

Epoch: Sep 15, 2026, 01:37 UTC

1 56833C 23079L   26258.06784722  .00049191  00000+0  18741-2 0  2589
2 56833  43.0078  97.4484 0002840 255.9197 324.3095 15.25885555    13

Volg STARLINK-30131 in realtime met AllMySat

Download on the App Store